Omaha, IA

12:00 AM CDT on October 24, 2019 (GMT -0500)
Eppley Airfield

Weather History for KOMA - September, 2019

Change the Weather History Date:

Tuesday, September 17, 2019

  Actual Average Record
Temperature  
Mean Temperature 83 °F 65 °F  
Max Temperature 91 °F 77 °F 102 °F (1895)
Min Temperature 75 °F 53 °F 37 °F (1973)
Degree Days  
Heating Degree Days 0 3  
Month to date heating degree days 0 29  
Since 1 July heating degree days 0 37  
Cooling Degree Days 18 3  
Month to date cooling degree days 170 88  
Year to date cooling degree days 1306 1068  
Growing Degree Days 33 (Base 50)    
Moisture  
Dew Point 69 °F    
Average Humidity 65    
Maximum Humidity 84    
Minimum Humidity 45    
Precipitation  
Precipitation 0.00 in 0.09 in 1.13 in (1978)
Month to date precipitation 0.30 1.62  
Year to date precipitation 25.60 24.73  
Snow  
Snow 0.00 in 0.00 in - ()
Month to date snowfall 0.0 0.0  
Since 1 July snowfall 0.0 0.0  
Since 1 September snowfall 0.0 0.0  
Snow Depth 0.00 in    
Sea Level Pressure  
Sea Level Pressure 29.93 in    
Wind  
Wind Speed 13 mph ()    
Max Wind Speed 25 mph    
Max Gust Speed 36 mph    
Visibility 10.0 miles    
Events      
T = Trace of Precipitation, MM = Missing Value Source: Averaged Metar Reports

Daily Weather History Graph

Daily Weather History Graph

Search for Another Location

Airport or City:

Astronomy

Sep. 17, 2019 Rise Set
Actual Time 7:05 AM CDT 7:29 PM CDT
Civil Twilight 6:38 AM CDT 7:57 PM CDT
Nautical Twilight 6:05 AM CDT 8:29 PM CDT
Astronomical Twilight 5:32 AM CDT 9:03 PM CDT
Moon 9:31 PM CDT (9/17) 10:12 AM CDT (9/17)
Length of Visible Light 13h 19m
Length of Day
12h 23m
Waning Gibbous, 89% of the Moon is Illuminated
Sep 17
Waning Gibbous
Sep 21
Last Quarter
Sep 28
New
Oct 5
First Quarter
Oct 13
Full

Hourly Weather History & Observations

Time (CDT) Temp. Heat Index Dew Point Humidity Pressure Visibility Wind Dir Wind Speed Gust Speed Precip Events Conditions
12:52 AM 77.0 °F - 70.0 °F 79% 29.98 in 10.0 mi SSE 11.5 mph - N/A   Mostly Cloudy
1:52 AM 78.1 °F - 70.0 °F 76% 29.97 in 10.0 mi SSE 12.7 mph - N/A   Scattered Clouds
3:52 AM 77.0 °F - 70.0 °F 79% 29.96 in 10.0 mi South 11.5 mph - N/A   Scattered Clouds
4:52 AM 75.9 °F - 70.0 °F 82% 29.96 in 10.0 mi South 12.7 mph - N/A   Scattered Clouds
5:52 AM 75.9 °F - 70.0 °F 82% 29.97 in 10.0 mi South 11.5 mph - N/A   Scattered Clouds
6:52 AM 75.0 °F - 70.0 °F 84% 29.98 in 10.0 mi South 11.5 mph - N/A   Scattered Clouds
7:52 AM 75.0 °F - 70.0 °F 84% 29.99 in 10.0 mi SSE 10.4 mph - N/A   Mostly Cloudy
9:52 AM 80.1 °F 83.2 °F 70.0 °F 71% 29.99 in 10.0 mi SSE 13.8 mph - N/A   Mostly Cloudy
10:52 AM 82.9 °F 86.5 °F 69.1 °F 63% 29.98 in 10.0 mi South 17.3 mph 26.5 mph N/A   Mostly Cloudy
12:52 PM 88.0 °F 92.1 °F 69.1 °F 53% 29.95 in 10.0 mi South 20.7 mph 29.9 mph N/A   Scattered Clouds
1:52 PM 90.0 °F 94.5 °F 69.1 °F 50% 29.94 in 10.0 mi SSE 21.9 mph 28.8 mph N/A   Scattered Clouds
2:52 PM 91.0 °F 95.2 °F 68.0 °F 47% 29.90 in 10.0 mi South 20.7 mph 31.1 mph N/A   Mostly Cloudy
3:52 PM 91.0 °F 95.2 °F 68.0 °F 47% 29.90 in 10.0 mi South 23.0 mph 34.5 mph N/A   Mostly Cloudy
4:52 PM 91.0 °F 94.3 °F 66.9 °F 45% 29.89 in 10.0 mi South 25.3 mph 33.4 mph N/A   Mostly Cloudy
5:52 PM 89.1 °F 92.1 °F 66.9 °F 48% 29.87 in 10.0 mi South 24.2 mph 33.4 mph N/A   Mostly Cloudy
6:52 PM 87.1 °F 89.9 °F 66.9 °F 51% 29.87 in 10.0 mi SSE 19.6 mph 31.1 mph N/A   Mostly Cloudy
7:52 PM 84.0 °F 86.5 °F 66.9 °F 56% 29.87 in 10.0 mi South 17.3 mph - N/A   Mostly Cloudy
8:52 PM 82.0 °F 84.5 °F 66.9 °F 60% 29.89 in 10.0 mi SSE 15.0 mph - N/A   Mostly Cloudy
9:52 PM 81.0 °F 84.1 °F 69.1 °F 67% 29.90 in 10.0 mi SSE 16.1 mph - N/A   Mostly Cloudy
10:52 PM 79.0 °F - 69.1 °F 72% 29.90 in 10.0 mi SSE 12.7 mph - N/A   Mostly Cloudy
11:52 PM 80.1 °F 82.9 °F 69.1 °F 69% 29.90 in 10.0 mi SSE 16.1 mph - N/A   Mostly Cloudy